Time,TemperatureF,DewpointF,PressureIn,WindDirection,WindDirectionDegrees,WindSpeedMPH,WindSpeedGustMPH,Humidity,HourlyPrecipIn,Conditions,Clouds,dailyrainin,SoftwareType,DateUTC
2013-05-09 00:02:00,68.5,66.7,29.24,NE,45,0.0,2.0,94,0.00,,,0.00,meteohub,2013-05-09 10:02:00,
2013-05-09 00:07:00,68.0,66.2,29.24,NE,45,0.0,0.0,94,0.00,,,0.00,meteohub,2013-05-09 10:07:00,
2013-05-09 00:12:00,67.8,66.4,29.23,NE,45,0.0,0.0,95,0.00,,,0.00,meteohub,2013-05-09 10:12:00,
2013-05-09 00:17:00,67.5,66.0,29.23,NE,45,0.0,0.0,95,0.00,,,0.00,meteohub,2013-05-09 10:17:00,
2013-05-09 00:22:00,67.3,66.0,29.23,NE,45,0.0,0.0,96,0.00,,,0.00,meteohub,2013-05-09 10:22:00,
2013-05-09 00:27:00,67.1,65.8,29.23,NE,45,0.0,0.0,96,0.00,,,0.00,meteohub,2013-05-09 10:27:00,
2013-05-09 00:32:00,67.1,66.2,29.23,NE,45,2.0,2.0,97,0.00,,,0.00,meteohub,2013-05-09 10:32:00,
2013-05-09 00:37:00,67.3,66.0,29.23,East,90,2.0,2.0,96,0.00,,,0.00,meteohub,2013-05-09 10:37:00,
2013-05-09 00:42:00,67.3,66.0,29.23,NE,45,2.0,2.0,96,0.00,,,0.00,meteohub,2013-05-09 10:42:00,
2013-05-09 00:47:00,67.3,65.8,29.23,NE,45,2.0,2.0,95,0.00,,,0.00,meteohub,2013-05-09 10:47:00,
2013-05-09 00:52:00,67.1,65.7,29.23,NE,45,0.0,2.0,95,0.00,,,0.00,meteohub,2013-05-09 10:52:00,
2013-05-09 00:57:00,66.9,65.5,29.23,NE,45,0.0,2.0,95,0.00,,,0.00,meteohub,2013-05-09 10:57:00,
2013-05-09 01:02:00,66.7,65.5,29.23,NE,45,2.0,2.0,96,0.00,,,0.00,meteohub,2013-05-09 11:02:00,
2013-05-09 01:07:00,66.7,65.5,29.22,NE,45,2.0,2.0,96,0.00,,,0.00,meteohub,2013-05-09 11:07:00,
2013-05-09 01:12:00,66.7,65.5,29.22,NE,45,2.0,2.0,96,0.00,,,0.00,meteohub,2013-05-09 11:12:00,
2013-05-09 01:17:00,66.7,65.5,29.22,NE,45,0.0,2.0,96,0.00,,,0.00,meteohub,2013-05-09 11:17:00,
2013-05-09 01:22:00,66.7,65.5,29.22,NE,45,2.0,2.0,96,0.00,,,0.00,meteohub,2013-05-09 11:22:00,
2013-05-09 01:27:00,66.7,65.5,29.21,NE,45,1.0,2.0,96,0.00,,,0.00,meteohub,2013-05-09 11:27:00,
2013-05-09 01:32:00,66.6,65.3,29.21,NE,45,2.0,2.0,96,0.00,,,0.00,meteohub,2013-05-09 11:32:00,
2013-05-09 01:37:00,66.6,65.3,29.21,NE,45,1.0,2.0,96,0.00,,,0.00,meteohub,2013-05-09 11:37:00,
2013-05-09 01:42:00,66.4,65.1,29.21,NE,45,2.0,2.0,96,0.00,,,0.00,meteohub,2013-05-09 11:42:00,
2013-05-09 01:47:00,66.0,64.8,29.21,NE,45,1.0,2.0,96,0.00,,,0.00,meteohub,2013-05-09 11:47:00,
2013-05-09 01:52:00,65.7,64.4,29.21,NE,45,1.0,2.0,96,0.00,,,0.00,meteohub,2013-05-09 11:52:00,
2013-05-09 01:57:00,65.5,64.6,29.21,NE,45,1.0,2.0,97,0.00,,,0.00,meteohub,2013-05-09 11:57:00,
2013-05-09 02:02:00,65.3,64.4,29.21,NE,45,0.0,2.0,97,0.00,,,0.00,meteohub,2013-05-09 12:02:00,
2013-05-09 02:07:00,65.3,64.8,29.21,NE,45,0.0,2.0,98,0.00,,,0.00,meteohub,2013-05-09 12:07:00,
2013-05-09 02:12:00,65.1,64.6,29.21,NE,45,0.0,2.0,98,0.00,,,0.00,meteohub,2013-05-09 12:12:00,
2013-05-09 02:17:00,64.9,64.4,29.20,NE,45,0.0,0.0,98,0.00,,,0.00,meteohub,2013-05-09 12:17:00,
2013-05-09 02:22:00,64.9,64.6,29.21,NE,45,0.0,0.0,99,0.00,,,0.00,meteohub,2013-05-09 12:22:00,
2013-05-09 02:27:00,64.9,64.6,29.20,NE,45,0.0,0.0,99,0.00,,,0.00,meteohub,2013-05-09 12:27:00,
2013-05-09 02:32:00,64.9,64.6,29.21,NE,45,0.0,0.0,99,0.00,,,0.00,meteohub,2013-05-09 12:32:00,
2013-05-09 02:37:00,65.1,64.8,29.21,NE,45,0.0,0.0,99,0.00,,,0.00,meteohub,2013-05-09 12:37:00,
2013-05-09 02:42:00,65.5,65.1,29.20,NE,45,2.0,2.0,99,0.00,,,0.00,meteohub,2013-05-09 12:42:00,
2013-05-09 02:47:00,65.8,65.3,29.21,NE,45,2.0,2.0,98,0.00,,,0.00,meteohub,2013-05-09 12:47:00,
2013-05-09 02:52:00,66.0,64.8,29.20,NE,45,2.0,2.0,96,0.00,,,0.00,meteohub,2013-05-09 12:52:00,
2013-05-09 02:57:00,66.2,64.8,29.20,NE,45,2.0,2.0,95,0.00,,,0.00,meteohub,2013-05-09 12:57:00,
2013-05-09 03:02:00,66.2,64.4,29.20,NE,45,2.0,2.0,94,0.00,,,0.00,meteohub,2013-05-09 13:02:00,
2013-05-09 03:07:00,66.4,64.2,29.20,NE,45,2.0,2.0,93,0.00,,,0.00,meteohub,2013-05-09 13:07:00,
2013-05-09 03:12:00,66.6,64.4,29.20,NE,45,1.0,2.0,93,0.00,,,0.00,meteohub,2013-05-09 13:12:00,
2013-05-09 03:17:00,66.6,64.2,29.20,NE,45,0.0,2.0,92,0.00,,,0.00,meteohub,2013-05-09 13:17:00,
2013-05-09 03:22:00,66.6,64.2,29.20,NE,45,1.0,2.0,92,0.00,,,0.00,meteohub,2013-05-09 13:22:00,
2013-05-09 03:27:00,66.6,63.9,29.20,NE,45,2.0,2.0,91,0.00,,,0.00,meteohub,2013-05-09 13:27:00,
2013-05-09 03:32:00,66.6,63.9,29.20,NE,45,0.0,2.0,91,0.00,,,0.00,meteohub,2013-05-09 13:32:00,
2013-05-09 03:37:00,66.6,63.9,29.20,NE,45,2.0,2.0,91,0.00,,,0.00,meteohub,2013-05-09 13:37:00,
2013-05-09 03:42:00,66.6,64.2,29.20,NE,45,2.0,2.0,92,0.00,,,0.00,meteohub,2013-05-09 13:42:00,
2013-05-09 03:47:00,66.6,64.2,29.20,NE,45,2.0,2.0,92,0.00,,,0.00,meteohub,2013-05-09 13:47:00,
2013-05-09 03:52:00,66.6,64.2,29.20,NE,45,0.0,2.0,92,0.00,,,0.00,meteohub,2013-05-09 13:52:00,
2013-05-09 03:57:00,66.7,64.4,29.20,NE,45,0.0,2.0,92,0.00,,,0.00,meteohub,2013-05-09 13:57:00,
2013-05-09 04:02:00,66.7,64.4,29.20,NE,45,2.0,2.0,92,0.00,,,0.00,meteohub,2013-05-09 14:02:00,
2013-05-09 04:07:00,66.7,64.4,29.20,NE,45,2.0,2.0,92,0.00,,,0.00,meteohub,2013-05-09 14:07:00,
2013-05-09 04:12:00,66.7,64.4,29.20,NE,45,2.0,2.0,92,0.00,,,0.00,meteohub,2013-05-09 14:12:00,
2013-05-09 04:17:00,66.6,64.2,29.20,NE,45,2.0,2.0,92,0.00,,,0.00,meteohub,2013-05-09 14:17:00,
2013-05-09 04:22:00,66.6,64.2,29.21,NE,45,2.0,2.0,92,0.00,,,0.00,meteohub,2013-05-09 14:22:00,
2013-05-09 04:27:00,66.2,63.9,29.20,NE,45,0.0,2.0,92,0.00,,,0.00,meteohub,2013-05-09 14:27:00,
2013-05-09 04:32:00,66.2,64.0,29.21,NE,45,0.0,2.0,93,0.00,,,0.00,meteohub,2013-05-09 14:32:00,
2013-05-09 04:37:00,66.2,64.0,29.21,NE,45,2.0,2.0,93,0.00,,,0.00,meteohub,2013-05-09 14:37:00,
2013-05-09 04:42:00,66.4,64.6,29.21,NE,45,2.0,2.0,94,0.00,,,0.00,meteohub,2013-05-09 14:42:00,
2013-05-09 04:47:00,66.6,64.8,29.21,NE,45,0.0,2.0,94,0.00,,,0.00,meteohub,2013-05-09 14:47:00,
2013-05-09 04:52:00,66.6,64.4,29.21,NE,45,2.0,2.0,93,0.00,,,0.00,meteohub,2013-05-09 14:52:00,
2013-05-09 04:57:00,66.6,64.4,29.21,NE,45,2.0,2.0,93,0.00,,,0.00,meteohub,2013-05-09 14:57:00,
2013-05-09 05:02:00,66.7,64.9,29.21,NE,45,2.0,2.0,94,0.00,,,0.00,meteohub,2013-05-09 15:02:00,
2013-05-09 05:07:00,66.9,65.1,29.21,NE,45,1.0,2.0,94,0.00,,,0.00,meteohub,2013-05-09 15:07:00,
2013-05-09 05:12:00,66.9,65.1,29.21,NE,45,2.0,2.0,94,0.00,,,0.00,meteohub,2013-05-09 15:12:00,
2013-05-09 05:17:00,67.1,65.3,29.21,NE,45,0.0,2.0,94,0.00,,,0.00,meteohub,2013-05-09 15:17:00,
2013-05-09 05:22:00,67.3,65.5,29.22,NE,45,0.0,2.0,94,0.00,,,0.00,meteohub,2013-05-09 15:22:00,
2013-05-09 05:27:00,67.1,65.3,29.22,NE,45,0.0,2.0,94,0.00,,,0.00,meteohub,2013-05-09 15:27:00,
2013-05-09 05:32:00,67.1,65.3,29.22,NE,45,0.0,0.0,94,0.00,,,0.00,meteohub,2013-05-09 15:32:00,
2013-05-09 05:37:00,67.3,65.5,29.22,NE,45,0.0,0.0,94,0.00,,,0.00,meteohub,2013-05-09 15:37:00,
2013-05-09 05:42:00,67.3,65.5,29.22,NE,45,0.0,0.0,94,0.00,,,0.00,meteohub,2013-05-09 15:42:00,
2013-05-09 05:47:00,67.3,65.8,29.22,NE,45,0.0,0.0,95,0.00,,,0.00,meteohub,2013-05-09 15:47:00,
2013-05-09 05:52:00,67.3,65.8,29.22,NE,45,1.0,0.0,95,0.00,,,0.00,meteohub,2013-05-09 15:52:00,
2013-05-09 05:57:00,67.3,65.8,29.22,NE,45,1.0,1.0,95,0.00,,,0.00,meteohub,2013-05-09 15:57:00,
2013-05-09 06:02:00,67.5,66.0,29.22,NE,45,0.0,1.0,95,0.00,,,0.00,meteohub,2013-05-09 16:02:00,
2013-05-09 06:07:00,67.6,66.2,29.23,NE,45,0.0,1.0,95,0.00,,,0.00,meteohub,2013-05-09 16:07:00,
2013-05-09 06:12:00,67.8,66.6,29.23,NE,45,0.0,1.0,96,0.00,,,0.00,meteohub,2013-05-09 16:12:00,
2013-05-09 06:17:00,67.8,66.6,29.23,NE,45,0.0,1.0,96,0.00,,,0.00,meteohub,2013-05-09 16:17:00,
2013-05-09 06:22:00,67.8,66.6,29.23,NE,45,0.0,0.0,96,0.00,,,0.00,meteohub,2013-05-09 16:22:00,
2013-05-09 06:27:00,68.0,66.7,29.23,NE,45,1.0,0.0,96,0.00,,,0.00,meteohub,2013-05-09 16:27:00,
2013-05-09 06:32:00,68.2,66.9,29.23,NE,45,0.0,1.0,96,0.00,,,0.00,meteohub,2013-05-09 16:32:00,
2013-05-09 06:37:00,68.4,67.1,29.24,NE,45,0.0,1.0,96,0.00,,,0.00,meteohub,2013-05-09 16:37:00,
2013-05-09 06:42:00,68.7,67.5,29.24,NE,45,0.0,1.0,96,0.00,,,0.00,meteohub,2013-05-09 16:42:00,
2013-05-09 06:47:00,69.1,67.8,29.24,NE,45,0.0,1.0,96,0.00,,,0.00,meteohub,2013-05-09 16:47:00,
2013-05-09 06:52:00,69.4,68.2,29.24,NE,45,0.0,1.0,96,0.00,,,0.00,meteohub,2013-05-09 16:52:00,
2013-05-09 06:57:00,69.8,68.4,29.24,NE,45,0.0,1.0,95,0.00,,,0.00,meteohub,2013-05-09 16:57:00,
2013-05-09 07:02:00,70.3,68.9,29.24,NE,45,0.0,1.0,95,0.00,,,0.00,meteohub,2013-05-09 17:02:00,
2013-05-09 07:07:00,71.1,69.6,29.24,NE,45,0.0,0.0,95,0.00,,,0.00,meteohub,2013-05-09 17:07:00,
2013-05-09 07:12:00,71.6,69.8,29.25,NE,45,0.0,0.0,94,0.00,,,0.00,meteohub,2013-05-09 17:12:00,
2013-05-09 07:17:00,72.1,70.0,29.25,NE,45,0.0,0.0,93,0.00,,,0.00,meteohub,2013-05-09 17:17:00,
2013-05-09 07:22:00,72.7,70.2,29.25,NE,45,0.0,0.0,92,0.00,,,0.00,meteohub,2013-05-09 17:22:00,
2013-05-09 07:27:00,73.0,70.0,29.25,North,0,1.0,0.0,90,0.00,,,0.00,meteohub,2013-05-09 17:27:00,
2013-05-09 07:32:00,73.0,69.3,29.25,North,0,0.0,2.0,88,0.00,,,0.00,meteohub,2013-05-09 17:32:00,
2013-05-09 07:37:00,73.4,69.6,29.25,North,0,0.0,2.0,88,0.00,,,0.00,meteohub,2013-05-09 17:37:00,
2013-05-09 07:42:00,73.9,69.4,29.25,East,90,1.0,2.0,86,0.00,,,0.00,meteohub,2013-05-09 17:42:00,
2013-05-09 07:47:00,74.3,69.8,29.25,East,90,0.0,1.0,86,0.00,,,0.00,meteohub,2013-05-09 17:47:00,
2013-05-09 07:52:00,74.7,69.4,29.25,East,90,1.0,1.0,84,0.00,,,0.00,meteohub,2013-05-09 17:52:00,
2013-05-09 07:57:00,75.2,69.6,29.25,NW,315,2.0,2.0,83,0.00,,,0.00,meteohub,2013-05-09 17:57:00,
2013-05-09 08:02:00,74.8,68.5,29.25,NW,315,2.0,2.0,81,0.00,,,0.00,meteohub,2013-05-09 18:02:00,
2013-05-09 08:07:00,75.2,68.9,29.25,NW,315,0.0,2.0,81,0.00,,,0.00,meteohub,2013-05-09 18:07:00,
2013-05-09 08:12:00,76.1,69.8,29.25,SE,135,2.0,2.0,81,0.00,,,0.00,meteohub,2013-05-09 18:12:00,
2013-05-09 08:17:00,76.6,70.0,29.25,SW,225,1.0,2.0,80,0.00,,,0.00,meteohub,2013-05-09 18:17:00,
2013-05-09 08:22:00,76.8,70.2,29.25,SW,225,2.0,2.0,80,0.00,,,0.00,meteohub,2013-05-09 18:22:00,
2013-05-09 08:27:00,77.0,69.3,29.25,West,270,3.0,3.0,77,0.00,,,0.00,meteohub,2013-05-09 18:27:00,
2013-05-09 08:32:00,76.5,68.7,29.25,NW,315,2.0,2.0,77,0.00,,,0.00,meteohub,2013-05-09 18:32:00,
2013-05-09 08:37:00,76.3,68.5,29.25,West,270,4.0,4.0,77,0.00,,,0.00,meteohub,2013-05-09 18:37:00,
2013-05-09 08:42:00,76.3,68.5,29.25,NW,315,3.0,4.0,77,0.00,,,0.00,meteohub,2013-05-09 18:42:00,
2013-05-09 08:47:00,76.5,69.1,29.25,West,270,2.0,4.0,78,0.00,,,0.00,meteohub,2013-05-09 18:47:00,
2013-05-09 08:52:00,76.8,69.1,29.26,West,270,4.0,4.0,77,0.00,,,0.00,meteohub,2013-05-09 18:52:00,
2013-05-09 08:57:00,77.0,70.0,29.25,NW,315,2.0,6.0,79,0.00,,,0.00,meteohub,2013-05-09 18:57:00,
2013-05-09 09:02:00,78.6,70.9,29.25,NW,315,2.0,6.0,77,0.00,,,0.00,meteohub,2013-05-09 19:02:00,
2013-05-09 09:07:00,79.0,69.6,29.25,West,270,3.0,6.0,73,0.00,,,0.00,meteohub,2013-05-09 19:07:00,
2013-05-09 09:12:00,79.2,70.2,29.26,NW,315,4.0,6.0,74,0.00,,,0.00,meteohub,2013-05-09 19:12:00,
2013-05-09 09:17:00,79.7,71.1,29.25,SW,225,2.0,4.0,75,0.00,,,0.00,meteohub,2013-05-09 19:17:00,
2013-05-09 09:22:00,80.8,71.8,29.25,SE,135,3.0,4.0,74,0.00,,,0.00,meteohub,2013-05-09 19:22:00,
2013-05-09 09:27:00,81.1,72.1,29.26,West,270,3.0,6.0,74,0.00,,,0.00,meteohub,2013-05-09 19:27:00,
2013-05-09 09:32:00,80.6,70.3,29.25,West,270,2.0,6.0,71,0.00,,,0.00,meteohub,2013-05-09 19:32:00,
2013-05-09 09:37:00,81.5,71.2,29.25,SW,225,2.0,6.0,71,0.00,,,0.00,meteohub,2013-05-09 19:37:00,
2013-05-09 09:42:00,80.6,70.3,29.25,NW,315,3.0,4.0,71,0.00,,,0.00,meteohub,2013-05-09 19:42:00,
2013-05-09 09:47:00,79.5,69.6,29.25,SW,225,2.0,3.0,72,0.00,,,0.00,meteohub,2013-05-09 19:47:00,
2013-05-09 09:52:00,79.2,69.8,29.25,SW,225,3.0,4.0,73,0.00,,,0.00,meteohub,2013-05-09 19:52:00,
2013-05-09 09:58:00,78.6,70.0,29.25,West,270,4.0,4.0,75,0.00,,,0.00,meteohub,2013-05-09 19:58:00,
2013-05-09 10:03:00,78.1,69.4,29.25,West,270,2.0,4.0,75,0.00,,,0.00,meteohub,2013-05-09 20:03:00,
2013-05-09 10:08:00,78.1,70.0,29.24,SW,225,3.0,6.0,76,0.00,,,0.00,meteohub,2013-05-09 20:08:00,
2013-05-09 10:13:00,77.9,70.2,29.24,SW,225,4.0,6.0,77,0.00,,,0.00,meteohub,2013-05-09 20:13:00,
2013-05-09 10:18:00,77.9,70.2,29.24,West,270,3.0,4.0,77,0.00,,,0.00,meteohub,2013-05-09 20:18:00,
2013-05-09 10:23:00,77.9,70.2,29.23,West,270,4.0,4.0,77,0.00,,,0.00,meteohub,2013-05-09 20:23:00,
2013-05-09 10:28:00,77.4,70.0,29.24,West,270,2.0,4.0,78,0.00,,,0.00,meteohub,2013-05-09 20:28:00,
2013-05-09 10:33:00,77.0,70.0,29.23,North,0,2.0,5.0,79,0.00,,,0.00,meteohub,2013-05-09 20:33:00,
2013-05-09 10:38:00,76.8,69.8,29.24,NW,315,3.0,5.0,79,0.00,,,0.00,meteohub,2013-05-09 20:38:00,
2013-05-09 10:43:00,76.6,70.0,29.24,West,270,2.0,5.0,80,0.00,,,0.00,meteohub,2013-05-09 20:43:00,
2013-05-09 10:48:00,76.6,70.3,29.24,West,270,3.0,4.0,81,0.00,,,0.00,meteohub,2013-05-09 20:48:00,
2013-05-09 10:53:00,77.0,70.7,29.24,West,270,8.0,8.0,81,0.00,,,0.00,meteohub,2013-05-09 20:53:00,
2013-05-09 10:58:00,77.0,70.7,29.23,North,0,3.0,8.0,81,0.00,,,0.00,meteohub,2013-05-09 20:58:00,
2013-05-09 11:03:00,77.5,70.9,29.24,West,270,4.0,8.0,80,0.00,,,0.00,meteohub,2013-05-09 21:03:00,
2013-05-09 11:08:00,77.4,70.7,29.23,West,270,4.0,8.0,80,0.00,,,0.00,meteohub,2013-05-09 21:08:00,
2013-05-09 11:13:00,77.4,71.1,29.23,NW,315,3.0,4.0,81,0.00,,,0.00,meteohub,2013-05-09 21:13:00,
2013-05-09 11:18:00,77.4,70.7,29.23,West,270,4.0,6.0,80,0.00,,,0.00,meteohub,2013-05-09 21:18:00,
2013-05-09 11:23:00,77.7,71.1,29.23,West,270,3.0,6.0,80,0.00,,,0.00,meteohub,2013-05-09 21:23:00,
2013-05-09 11:28:00,78.3,71.6,29.23,West,270,3.0,6.0,80,0.00,,,0.00,meteohub,2013-05-09 21:28:00,
2013-05-09 11:33:00,78.1,71.1,29.23,NW,315,2.0,6.0,79,0.00,,,0.00,meteohub,2013-05-09 21:33:00,
2013-05-09 11:38:00,78.8,71.4,29.23,NW,315,2.0,6.0,78,0.00,,,0.00,meteohub,2013-05-09 21:38:00,
2013-05-09 11:43:00,79.3,71.4,29.23,NW,315,6.0,6.0,77,0.00,,,0.00,meteohub,2013-05-09 21:43:00,
2013-05-09 11:48:00,78.6,71.2,29.23,SE,135,2.0,8.0,78,0.00,,,0.00,meteohub,2013-05-09 21:48:00,
2013-05-09 11:53:00,78.4,71.8,29.22,West,270,3.0,8.0,80,0.00,,,0.00,meteohub,2013-05-09 21:53:00,
2013-05-09 11:58:00,77.7,71.4,29.23,East,90,2.0,8.0,81,0.00,,,0.00,meteohub,2013-05-09 21:58:00,
2013-05-09 12:03:00,77.0,71.4,29.22,SE,135,3.0,4.0,83,0.00,,,0.00,meteohub,2013-05-09 22:03:00,
2013-05-09 12:08:00,76.3,71.4,29.22,SE,135,5.0,5.0,85,0.00,,,0.00,meteohub,2013-05-09 22:08:00,
2013-05-09 12:13:00,76.1,71.6,29.21,East,90,3.0,5.0,86,0.00,,,0.00,meteohub,2013-05-09 22:13:00,
2013-05-09 12:18:00,77.0,71.8,29.21,West,270,4.0,5.0,84,0.00,,,0.00,meteohub,2013-05-09 22:18:00,
2013-05-09 12:23:00,78.6,73.0,29.21,SW,225,3.0,5.0,83,0.00,,,0.00,meteohub,2013-05-09 22:23:00,
2013-05-09 12:28:00,80.6,72.7,29.21,West,270,7.0,7.0,77,0.00,,,0.00,meteohub,2013-05-09 22:28:00,
2013-05-09 12:33:00,82.0,73.8,29.21,West,270,4.0,6.0,76,0.00,,,0.00,meteohub,2013-05-09 22:33:00,
2013-05-09 12:38:00,81.0,72.0,29.21,NW,315,2.0,7.0,74,0.00,,,0.00,meteohub,2013-05-09 22:38:00,
2013-05-09 12:43:00,80.8,72.5,29.20,NW,315,3.0,7.0,76,0.00,,,0.00,meteohub,2013-05-09 22:43:00,
2013-05-09 12:48:00,80.8,72.9,29.20,West,270,2.0,6.0,77,0.00,,,0.00,meteohub,2013-05-09 22:48:00,
2013-05-09 12:53:00,80.4,72.1,29.20,South,180,4.0,6.0,76,0.00,,,0.00,meteohub,2013-05-09 22:53:00,
2013-05-09 12:58:00,79.7,71.4,29.20,SW,225,2.0,6.0,76,0.00,,,0.00,meteohub,2013-05-09 22:58:00,
2013-05-09 13:03:00,79.7,71.4,29.20,NW,315,2.0,4.0,76,0.00,,,0.00,meteohub,2013-05-09 23:03:00,
2013-05-09 13:08:00,80.1,71.8,29.20,NW,315,3.0,4.0,76,0.00,,,0.00,meteohub,2013-05-09 23:08:00,
2013-05-09 13:13:00,80.4,71.8,29.20,East,90,3.0,4.0,75,0.00,,,0.00,meteohub,2013-05-09 23:13:00,
2013-05-09 13:18:00,80.2,72.0,29.19,East,90,2.0,4.0,76,0.00,,,0.00,meteohub,2013-05-09 23:18:00,
2013-05-09 13:23:00,79.9,71.2,29.20,NW,315,4.0,4.0,75,0.00,,,0.00,meteohub,2013-05-09 23:23:00,
2013-05-09 13:28:00,79.0,70.7,29.20,West,270,2.0,4.0,76,0.00,,,0.00,meteohub,2013-05-09 23:28:00,
2013-05-09 13:33:00,78.1,70.3,29.19,West,270,4.0,4.0,77,0.00,,,0.00,meteohub,2013-05-09 23:33:00,
2013-05-09 13:38:00,77.2,70.2,29.19,NW,315,2.0,4.0,79,0.00,,,0.00,meteohub,2013-05-09 23:38:00,
2013-05-09 13:43:00,76.1,70.2,29.19,SW,225,3.0,5.0,82,0.00,,,0.00,meteohub,2013-05-09 23:43:00,
2013-05-09 13:48:00,75.2,70.0,29.19,West,270,2.0,7.0,84,0.00,,,0.00,meteohub,2013-05-09 23:48:00,
2013-05-09 13:53:00,74.7,70.2,29.18,North,0,2.0,7.0,86,0.00,,,0.00,meteohub,2013-05-09 23:53:00,
2013-05-09 13:58:00,74.1,70.7,29.18,SW,225,4.0,7.0,89,0.00,,,0.00,meteohub,2013-05-09 23:58:00,
2013-05-09 14:03:00,73.8,70.9,29.18,West,270,4.0,7.0,91,0.00,,,0.00,meteohub,2013-05-10 00:03:00,
2013-05-09 14:08:00,73.4,71.2,29.18,West,270,4.0,6.0,93,0.00,,,0.00,meteohub,2013-05-10 00:08:00,
2013-05-09 14:13:00,73.2,71.8,29.18,North,0,2.0,6.0,95,0.00,,,0.00,meteohub,2013-05-10 00:13:00,
2013-05-09 14:18:00,73.0,71.6,29.18,West,270,3.0,4.0,95,0.00,,,0.00,meteohub,2013-05-10 00:18:00,
2013-05-09 14:23:00,72.7,71.8,29.18,NW,315,5.0,5.0,97,0.00,,,0.00,meteohub,2013-05-10 00:23:00,
2013-05-09 14:28:00,72.3,71.4,29.18,West,270,2.0,5.0,97,0.00,,,0.00,meteohub,2013-05-10 00:28:00,
2013-05-09 14:33:00,72.3,72.0,29.18,West,270,2.0,5.0,99,0.00,,,0.00,meteohub,2013-05-10 00:33:00,
2013-05-09 14:38:00,72.3,72.0,29.18,West,270,3.0,5.0,99,0.01,,,0.01,meteohub,2013-05-10 00:38:00,
2013-05-09 14:43:00,72.1,71.8,29.18,West,270,1.0,4.0,99,0.01,,,0.01,meteohub,2013-05-10 00:43:00,
2013-05-09 14:48:00,72.1,71.8,29.18,SW,225,2.0,4.0,99,0.01,,,0.01,meteohub,2013-05-10 00:48:00,
2013-05-09 14:53:00,72.0,71.6,29.18,NW,315,2.0,4.0,99,0.01,,,0.01,meteohub,2013-05-10 00:53:00,
2013-05-09 14:58:00,71.8,71.4,29.18,NE,45,2.0,4.0,99,0.01,,,0.01,meteohub,2013-05-10 00:58:00,
2013-05-09 15:03:00,71.6,71.2,29.18,West,270,2.0,4.0,99,0.01,,,0.01,meteohub,2013-05-10 01:03:00,
2013-05-09 15:08:00,71.6,71.2,29.18,NW,315,3.0,4.0,99,0.01,,,0.01,meteohub,2013-05-10 01:08:00,
2013-05-09 15:14:00,71.8,71.4,29.18,West,270,2.0,5.0,99,0.01,,,0.01,meteohub,2013-05-10 01:14:00,
2013-05-09 15:19:00,71.8,71.4,29.18,NW,315,2.0,5.0,99,0.01,,,0.01,meteohub,2013-05-10 01:19:00,
2013-05-09 15:24:00,72.0,71.6,29.18,NW,315,2.0,5.0,99,0.01,,,0.01,meteohub,2013-05-10 01:24:00,
2013-05-09 15:29:00,72.5,72.1,29.18,NW,315,2.0,3.0,99,0.01,,,0.01,meteohub,2013-05-10 01:29:00,
2013-05-09 15:34:00,72.9,72.5,29.18,North,0,2.0,2.0,99,0.00,,,0.01,meteohub,2013-05-10 01:34:00,
2013-05-09 15:39:00,72.9,72.5,29.18,North,0,2.0,2.0,99,0.00,,,0.01,meteohub,2013-05-10 01:39:00,
2013-05-09 15:44:00,73.0,72.7,29.17,NW,315,2.0,3.0,99,0.00,,,0.01,meteohub,2013-05-10 01:44:00,
2013-05-09 15:49:00,73.0,72.7,29.17,West,270,0.0,3.0,99,0.00,,,0.01,meteohub,2013-05-10 01:49:00,
2013-05-09 15:54:00,72.9,72.5,29.17,West,270,2.0,3.0,99,0.00,,,0.01,meteohub,2013-05-10 01:54:00,
2013-05-09 15:59:00,72.9,72.5,29.17,West,270,0.0,4.0,99,0.00,,,0.01,meteohub,2013-05-10 01:59:00,
2013-05-09 16:04:00,73.0,72.7,29.17,West,270,2.0,4.0,99,0.00,,,0.01,meteohub,2013-05-10 02:04:00,
2013-05-09 16:09:00,73.0,72.7,29.17,NW,315,0.0,4.0,99,0.01,,,0.02,meteohub,2013-05-10 02:09:00,
2013-05-09 16:14:00,73.0,72.7,29.17,West,270,3.0,3.0,99,0.01,,,0.02,meteohub,2013-05-10 02:14:00,
2013-05-09 16:19:00,73.0,72.5,29.17,NW,315,4.0,4.0,98,0.01,,,0.02,meteohub,2013-05-10 02:19:00,
2013-05-09 16:24:00,73.0,72.5,29.16,West,270,1.0,4.0,98,0.01,,,0.02,meteohub,2013-05-10 02:24:00,
2013-05-09 16:29:00,72.7,72.3,29.17,West,270,5.0,5.0,99,0.01,,,0.02,meteohub,2013-05-10 02:29:00,
2013-05-09 16:34:00,72.5,72.1,29.17,NW,315,6.0,6.0,99,0.01,,,0.02,meteohub,2013-05-10 02:34:00,
2013-05-09 16:39:00,72.1,71.8,29.17,West,270,0.0,5.0,99,0.01,,,0.02,meteohub,2013-05-10 02:39:00,
2013-05-09 16:44:00,71.8,71.4,29.17,West,270,2.0,6.0,99,0.01,,,0.02,meteohub,2013-05-10 02:44:00,
2013-05-09 16:49:00,71.8,71.4,29.18,NW,315,1.0,6.0,99,0.01,,,0.02,meteohub,2013-05-10 02:49:00,
2013-05-09 16:54:00,71.8,71.4,29.18,North,0,2.0,3.0,99,0.01,,,0.02,meteohub,2013-05-10 02:54:00,
2013-05-09 16:59:00,72.1,71.8,29.18,West,270,1.0,3.0,99,0.01,,,0.02,meteohub,2013-05-10 02:59:00,
2013-05-09 17:04:00,72.3,72.0,29.18,West,270,2.0,3.0,99,0.01,,,0.02,meteohub,2013-05-10 03:04:00,
2013-05-09 17:09:00,72.5,72.1,29.18,SW,225,2.0,3.0,99,0.00,,,0.02,meteohub,2013-05-10 03:09:00,
2013-05-09 17:14:00,72.7,72.3,29.18,NW,315,0.0,2.0,99,0.00,,,0.02,meteohub,2013-05-10 03:14:00,
2013-05-09 17:19:00,73.0,72.7,29.18,North,0,1.0,3.0,99,0.00,,,0.02,meteohub,2013-05-10 03:19:00,
2013-05-09 17:24:00,73.4,73.0,29.18,West,270,2.0,3.0,99,0.00,,,0.02,meteohub,2013-05-10 03:24:00,
2013-05-09 17:29:00,74.1,72.9,29.19,NW,315,1.0,3.0,96,0.00,,,0.02,meteohub,2013-05-10 03:29:00,
2013-05-09 17:34:00,74.5,72.7,29.18,NW,315,2.0,2.0,94,0.00,,,0.02,meteohub,2013-05-10 03:34:00,
2013-05-09 17:39:00,74.8,72.3,29.19,NW,315,0.0,2.0,92,0.00,,,0.02,meteohub,2013-05-10 03:39:00,
2013-05-09 17:44:00,75.0,72.0,29.19,NE,45,0.0,2.0,90,0.00,,,0.02,meteohub,2013-05-10 03:44:00,
2013-05-09 17:49:00,75.2,71.4,29.18,North,0,0.0,2.0,88,0.00,,,0.02,meteohub,2013-05-10 03:49:00,
2013-05-09 17:54:00,75.0,70.9,29.19,NW,315,0.0,2.0,87,0.00,,,0.02,meteohub,2013-05-10 03:54:00,
2013-05-09 17:59:00,75.2,71.4,29.19,South,180,2.0,2.0,88,0.00,,,0.02,meteohub,2013-05-10 03:59:00,
2013-05-09 18:01:00,75.2,71.1,29.19,South,180,2.0,2.0,87,0.00,,,0.02,meteohub,2013-05-10 04:01:00,
2013-05-09 18:06:00,74.8,71.8,29.19,East,90,3.0,3.0,90,0.00,,,0.02,meteohub,2013-05-10 04:06:00,
2013-05-09 18:11:00,74.1,72.0,29.19,SE,135,0.0,4.0,93,0.00,,,0.02,meteohub,2013-05-10 04:11:00,
2013-05-09 18:16:00,73.6,72.3,29.19,SE,135,2.0,4.0,96,0.00,,,0.02,meteohub,2013-05-10 04:16:00,
2013-05-09 18:21:00,72.9,72.3,29.19,SE,135,2.0,4.0,98,0.00,,,0.02,meteohub,2013-05-10 04:21:00,
2013-05-09 18:26:00,72.7,72.1,29.19,North,0,1.0,2.0,98,0.00,,,0.02,meteohub,2013-05-10 04:26:00,
2013-05-09 18:31:00,72.0,71.6,29.20,West,270,2.0,2.0,99,0.00,,,0.02,meteohub,2013-05-10 04:31:00,
2013-05-09 18:36:00,71.8,71.4,29.20,West,270,2.0,2.0,99,0.00,,,0.02,meteohub,2013-05-10 04:36:00,
2013-05-09 18:41:00,71.8,71.4,29.20,West,270,0.0,2.0,99,0.00,,,0.02,meteohub,2013-05-10 04:41:00,
2013-05-09 18:46:00,71.6,71.2,29.20,West,270,2.0,2.0,99,0.00,,,0.02,meteohub,2013-05-10 04:46:00,
2013-05-09 18:51:00,71.6,71.2,29.21,West,270,0.0,2.0,99,0.00,,,0.02,meteohub,2013-05-10 04:51:00,
2013-05-09 18:56:00,71.6,71.2,29.21,West,270,0.0,2.0,99,0.00,,,0.02,meteohub,2013-05-10 04:56:00,
2013-05-09 19:01:00,71.6,71.2,29.21,West,270,0.0,2.0,99,0.00,,,0.02,meteohub,2013-05-10 05:01:00,
2013-05-09 19:06:00,71.4,71.1,29.21,West,270,0.0,1.0,99,0.00,,,0.02,meteohub,2013-05-10 05:06:00,
2013-05-09 19:11:00,71.4,71.1,29.21,West,270,0.0,1.0,99,0.00,,,0.02,meteohub,2013-05-10 05:11:00,
2013-05-09 19:16:00,71.4,71.1,29.22,West,270,1.0,1.0,99,0.00,,,0.02,meteohub,2013-05-10 05:16:00,
2013-05-09 19:21:00,71.4,71.1,29.22,West,270,0.0,1.0,99,0.00,,,0.02,meteohub,2013-05-10 05:21:00,
2013-05-09 19:27:00,71.4,71.1,29.22,West,270,0.0,1.0,99,0.00,,,0.02,meteohub,2013-05-10 05:27:00,
2013-05-09 19:32:00,71.2,70.9,29.22,West,270,2.0,2.0,99,0.00,,,0.02,meteohub,2013-05-10 05:32:00,
2013-05-09 19:37:00,71.1,70.7,29.22,North,-999,-999.0,2.0,99,0.00,,,0.02,meteohub,2013-05-10 05:37:00,
2013-05-09 19:42:00,71.1,70.7,29.23,North,-999,-999.0,2.0,99,0.00,,,0.02,meteohub,2013-05-10 05:42:00,
2013-05-09 19:47:00,70.9,70.5,29.23,SE,135,1.0,2.0,99,0.01,,,0.04,meteohub,2013-05-10 05:47:00,
2013-05-09 19:52:00,70.9,70.5,29.23,SE,135,1.0,2.0,99,0.01,,,0.04,meteohub,2013-05-10 05:52:00,
2013-05-09 19:57:00,70.7,70.3,29.23,NW,315,2.0,2.0,99,0.01,,,0.04,meteohub,2013-05-10 05:57:00,
2013-05-09 20:02:00,70.5,70.2,29.24,SE,135,0.0,2.0,99,0.01,,,0.04,meteohub,2013-05-10 06:02:00,
2013-05-09 20:07:00,70.5,70.2,29.25,SE,135,2.0,2.0,99,0.01,,,0.04,meteohub,2013-05-10 06:07:00,
2013-05-09 20:12:00,70.3,70.0,29.25,SE,135,0.0,2.0,99,0.01,,,0.04,meteohub,2013-05-10 06:12:00,
2013-05-09 20:17:00,70.3,70.0,29.25,SE,135,0.0,2.0,99,0.01,,,0.04,meteohub,2013-05-10 06:17:00,
2013-05-09 20:22:00,70.2,69.8,29.25,SE,135,0.0,2.0,99,0.01,,,0.04,meteohub,2013-05-10 06:22:00,
2013-05-09 20:27:00,70.2,69.8,29.25,SE,135,0.0,1.0,99,0.01,,,0.04,meteohub,2013-05-10 06:27:00,
2013-05-09 20:32:00,70.0,69.6,29.26,SE,135,0.0,1.0,99,0.01,,,0.04,meteohub,2013-05-10 06:32:00,
2013-05-09 20:37:00,70.0,69.6,29.25,SE,135,0.0,0.0,99,0.01,,,0.04,meteohub,2013-05-10 06:37:00,
2013-05-09 20:42:00,70.0,69.6,29.26,SE,135,0.0,0.0,99,0.00,,,0.04,meteohub,2013-05-10 06:42:00,
2013-05-09 20:47:00,69.8,69.4,29.26,SE,135,0.0,0.0,99,0.00,,,0.04,meteohub,2013-05-10 06:47:00,
2013-05-09 20:52:00,69.6,69.3,29.26,SE,135,0.0,0.0,99,0.00,,,0.04,meteohub,2013-05-10 06:52:00,
2013-05-09 20:57:00,69.3,68.9,29.26,NE,45,0.0,0.0,99,0.00,,,0.04,meteohub,2013-05-10 06:57:00,
2013-05-09 21:02:00,69.1,68.7,29.27,NE,45,0.0,0.0,99,0.00,,,0.04,meteohub,2013-05-10 07:02:00,
2013-05-09 21:07:00,68.9,68.5,29.27,NE,45,0.0,0.0,99,0.00,,,0.04,meteohub,2013-05-10 07:07:00,
2013-05-09 21:12:00,68.7,68.4,29.27,NE,45,0.0,0.0,99,0.00,,,0.04,meteohub,2013-05-10 07:12:00,
2013-05-09 21:17:00,68.7,68.4,29.27,NE,45,0.0,0.0,99,0.00,,,0.04,meteohub,2013-05-10 07:17:00,
2013-05-09 21:22:00,68.7,68.4,29.27,NE,45,0.0,0.0,99,0.00,,,0.04,meteohub,2013-05-10 07:22:00,
2013-05-09 21:27:00,68.7,68.4,29.27,NE,45,0.0,0.0,99,0.00,,,0.04,meteohub,2013-05-10 07:27:00,
2013-05-09 21:32:00,68.9,68.5,29.27,NE,45,0.0,0.0,99,0.00,,,0.04,meteohub,2013-05-10 07:32:00,
2013-05-09 21:37:00,68.9,68.5,29.27,NE,45,0.0,0.0,99,0.00,,,0.04,meteohub,2013-05-10 07:37:00,
2013-05-09 21:42:00,68.9,68.5,29.28,NE,45,0.0,0.0,99,0.00,,,0.04,meteohub,2013-05-10 07:42:00,
2013-05-09 21:47:00,68.9,68.5,29.27,NE,45,0.0,0.0,99,0.00,,,0.04,meteohub,2013-05-10 07:47:00,
2013-05-09 21:52:00,68.9,68.5,29.27,NE,45,0.0,0.0,99,0.00,,,0.04,meteohub,2013-05-10 07:52:00,
2013-05-09 21:57:00,68.9,68.5,29.28,NE,45,0.0,0.0,99,0.00,,,0.04,meteohub,2013-05-10 07:57:00,
2013-05-09 22:02:00,68.7,68.4,29.28,NE,45,0.0,0.0,99,0.00,,,0.04,meteohub,2013-05-10 08:02:00,
2013-05-09 22:07:00,68.7,68.4,29.28,NE,45,0.0,0.0,99,0.00,,,0.04,meteohub,2013-05-10 08:07:00,
2013-05-09 22:12:00,68.7,68.4,29.28,NE,45,0.0,0.0,99,0.00,,,0.04,meteohub,2013-05-10 08:12:00,
2013-05-09 22:17:00,68.7,68.4,29.29,NE,45,0.0,0.0,99,0.00,,,0.04,meteohub,2013-05-10 08:17:00,
2013-05-09 22:22:00,68.7,68.4,29.29,NE,45,0.0,0.0,99,0.00,,,0.04,meteohub,2013-05-10 08:22:00,
2013-05-09 22:27:00,68.7,68.4,29.29,NE,45,0.0,0.0,99,0.00,,,0.04,meteohub,2013-05-10 08:27:00,
2013-05-09 22:32:00,68.7,68.4,29.29,NE,45,0.0,0.0,99,0.00,,,0.04,meteohub,2013-05-10 08:32:00,
2013-05-09 22:37:00,68.7,68.4,29.29,NE,45,0.0,0.0,99,0.00,,,0.04,meteohub,2013-05-10 08:37:00,
2013-05-09 22:42:00,68.7,68.4,29.28,NE,45,0.0,0.0,99,0.00,,,0.04,meteohub,2013-05-10 08:42:00,
2013-05-09 22:47:00,68.7,68.4,29.29,NE,45,0.0,0.0,99,0.00,,,0.04,meteohub,2013-05-10 08:47:00,
2013-05-09 22:52:00,68.9,68.5,29.29,NE,45,0.0,0.0,99,0.00,,,0.04,meteohub,2013-05-10 08:52:00,
2013-05-09 22:57:00,68.9,68.5,29.29,NE,45,0.0,0.0,99,0.00,,,0.04,meteohub,2013-05-10 08:57:00,
2013-05-09 23:02:00,68.9,68.5,29.29,NE,45,0.0,0.0,99,0.00,,,0.04,meteohub,2013-05-10 09:02:00,
2013-05-09 23:07:00,68.9,68.5,29.29,NE,45,0.0,0.0,99,0.00,,,0.04,meteohub,2013-05-10 09:07:00,
2013-05-09 23:12:00,68.9,68.5,29.29,NE,45,0.0,0.0,99,0.00,,,0.04,meteohub,2013-05-10 09:12:00,
2013-05-09 23:17:00,68.9,68.5,29.28,NE,45,0.0,0.0,99,0.00,,,0.04,meteohub,2013-05-10 09:17:00,
2013-05-09 23:22:00,69.1,68.7,29.28,NE,45,0.0,0.0,99,0.00,,,0.04,meteohub,2013-05-10 09:22:00,
2013-05-09 23:27:00,69.3,68.9,29.28,NE,45,0.0,0.0,99,0.00,,,0.04,meteohub,2013-05-10 09:27:00,
2013-05-09 23:32:00,69.3,68.9,29.28,NE,45,0.0,0.0,99,0.00,,,0.04,meteohub,2013-05-10 09:32:00,
2013-05-09 23:37:00,69.3,68.9,29.28,NE,45,0.0,0.0,99,0.00,,,0.04,meteohub,2013-05-10 09:37:00,
2013-05-09 23:42:00,69.3,68.9,29.28,NE,45,0.0,0.0,99,0.00,,,0.04,meteohub,2013-05-10 09:42:00,
2013-05-09 23:47:00,69.3,68.9,29.28,NE,45,0.0,0.0,99,0.00,,,0.04,meteohub,2013-05-10 09:47:00,
2013-05-09 23:52:00,69.3,68.9,29.28,NE,45,0.0,0.0,99,0.00,,,0.04,meteohub,2013-05-10 09:52:00,
2013-05-09 23:57:00,69.3,68.9,29.28,NE,45,0.0,0.0,99,0.00,,,0.04,meteohub,2013-05-10 09:57:00,